Date String (YYYY-MM-DD hh:mm:ss) UTC,Instrument flags,Ambient pressure (hPa),Sample flow (lpm),Bypass flow (lpm),Sample temperature (°C),Ambient temperature (°C),ASC tube jacket temperature (°C),LED temperature (°C),Box temperature (°C),Sample RH (%),Span deviation,Mass concentration (μg/m³),Mass concentration (μg/m³),Mass concentration (μg/m³)
DateTimeUTC,F1_M11,P_M11,Q1_M11,Q2_M11,T1_M11,T2_M11,T3_M11,T4_M11,T5_M11,U1_M11,ZSPAN_M11,X0_M11,X2_M11,X1_M11
2022-11-05 13:00:00,,0811.4,5.01,0.00,22.6,21.2,00.0,31.4,24.4,14.7,0000.0,0125.04,0003.78,0000.69
2022-11-05 13:01:00,,0811.5,5.00,0.00,22.6,21.0,00.0,31.4,24.3,14.7,0000.0,0129.97,0003.80,0000.68
2022-11-05 13:02:00,,0811.4,4.99,0.00,22.5,20.9,00.0,31.4,24.2,14.6,0000.0,0114.11,0003.51,0000.65
2022-11-05 13:03:00,,0811.3,5.01,0.00,22.5,20.7,00.0,31.4,24.2,14.7,0000.0,0053.35,0002.29,0000.55
2022-11-05 13:04:00,,0811.4,5.00,0.00,22.4,20.6,00.0,31.4,24.1,14.8,0000.0,0047.69,0002.02,0000.53
2022-11-05 13:05:00,,0811.5,5.01,0.00,22.4,21.0,00.0,31.3,24.2,14.8,0000.0,0046.30,0001.93,0000.52
2022-11-05 13:06:00,,0811.3,4.99,0.00,22.5,22.0,00.0,31.3,24.5,14.8,0000.0,0046.09,0001.87,0000.52
2022-11-05 13:07:00,,0811.2,4.99,0.00,22.6,22.6,00.0,31.3,24.7,14.7,0000.0,0045.40,0001.75,0000.51
2022-11-05 13:08:00,,0811.3,5.01,0.00,22.7,22.4,00.0,31.4,24.7,14.6,0000.0,0036.91,0001.60,0000.50
2022-11-05 13:09:00,,0811.4,4.99,0.00,22.7,22.0,00.0,31.4,24.6,14.5,0000.0,0027.82,0001.47,0000.48
2022-11-05 13:10:00,,0811.5,5.00,0.00,22.7,21.7,00.0,31.4,24.5,14.7,0000.0,0019.43,0001.28,0000.48
2022-11-05 13:11:00,,0811.6,5.00,0.00,22.6,21.5,00.0,31.4,24.5,14.7,0000.0,0018.91,0001.29,0000.48
2022-11-05 13:12:00,,0811.4,5.00,0.00,22.6,21.2,00.0,31.5,24.4,14.7,0000.0,0014.14,0001.23,0000.47
2022-11-05 13:13:00,,0811.4,5.00,0.00,22.6,21.0,00.0,31.4,24.3,14.8,0000.0,0013.48,0001.30,0000.47
2022-11-05 13:14:00,,0811.7,5.01,0.00,22.5,20.9,00.0,31.5,24.2,14.7,0000.0,0012.31,0001.30,0000.46
2022-11-05 13:15:00,,0811.3,5.00,0.00,22.5,20.8,00.0,31.4,24.2,14.6,0000.0,0010.93,0001.21,0000.44
2022-11-05 13:16:00,,0811.1,4.99,0.00,22.5,20.7,00.0,31.4,24.2,15.0,0000.0,0011.48,0001.24,0000.44
2022-11-05 13:17:00,,0811.1,5.01,0.00,22.4,20.6,00.0,31.4,24.1,15.0,0000.0,0011.89,0001.29,0000.44
2022-11-05 13:18:00,,0811.2,5.00,0.00,22.4,20.5,00.0,31.4,24.1,15.0,0000.0,0011.70,0001.32,0000.44
2022-11-05 13:19:00,,0811.1,4.99,0.00,22.4,20.4,00.0,31.4,24.0,15.2,0000.0,0010.95,0001.25,0000.43
2022-11-05 13:20:00,,0811.2,5.01,0.00,22.3,20.4,00.0,31.4,24.0,15.1,0000.0,0011.10,0001.23,0000.44
2022-11-05 13:21:00,,0811.3,4.99,0.00,22.3,20.3,00.0,31.3,23.9,15.2,0000.0,0010.66,0001.30,0000.43
2022-11-05 13:22:00,,0810.8,5.00,0.00,22.2,20.3,00.0,31.3,23.9,15.3,0000.0,0009.85,0001.28,0000.43
2022-11-05 13:23:00,,0811.2,4.99,0.00,22.2,20.2,00.0,31.3,23.9,15.3,0000.0,0010.27,0001.35,0000.43
2022-11-05 13:24:00,,0810.9,5.00,0.00,22.2,21.0,00.0,31.2,24.0,15.3,0000.0,0010.60,0001.35,0000.44
2022-11-05 13:25:00,,0811.0,5.01,0.00,22.3,22.1,00.0,31.2,24.3,15.3,0000.0,0010.15,0001.28,0000.44
2022-11-05 13:26:00,,0811.0,4.99,0.00,22.4,22.3,00.0,31.2,24.5,15.2,0000.0,0009.69,0001.28,0000.44
2022-11-05 13:27:00,,0810.9,5.00,0.00,22.4,22.0,00.0,31.2,24.4,15.1,0000.0,0009.14,0001.28,0000.44
2022-11-05 13:28:00,,0811.0,5.00,0.00,22.4,21.7,00.0,31.2,24.3,15.2,0000.0,0008.09,0001.28,0000.45
2022-11-05 13:29:00,,0810.9,5.00,0.00,22.4,21.4,00.0,31.2,24.3,15.3,0000.0,0006.40,0001.22,0000.45
2022-11-05 13:30:00,,0811.0,4.99,0.00,22.4,21.2,00.0,31.2,24.2,15.3,0000.0,0006.35,0001.24,0000.45
2022-11-05 13:31:00,,0811.0,5.01,0.00,22.4,21.1,00.0,31.2,24.2,15.1,0000.0,0005.87,0001.24,0000.45
2022-11-05 13:32:00,,0810.7,5.00,0.00,22.4,21.0,00.0,31.2,24.2,15.2,0000.0,0005.25,0001.16,0000.44
2022-11-05 13:33:00,,0810.6,5.00,0.00,22.4,20.8,00.0,31.2,24.1,15.2,0000.0,0005.17,0001.15,0000.44
2022-11-05 13:34:00,,0810.6,4.99,0.00,22.3,20.7,00.0,31.2,24.0,15.3,0000.0,0004.57,0001.11,0000.44
2022-11-05 13:35:00,,0810.6,4.99,0.00,22.3,20.6,00.0,31.2,24.0,15.5,0000.0,0003.87,0001.11,0000.44
2022-11-05 13:36:00,,0810.6,5.00,0.00,22.3,20.5,00.0,31.2,23.9,15.5,0000.0,0003.31,0001.07,0000.44
2022-11-05 13:37:00,,0810.7,4.99,0.00,22.2,20.4,00.0,31.2,23.9,15.5,0000.0,0003.24,0001.07,0000.44
2022-11-05 13:38:00,,0810.8,5.01,0.00,22.2,20.3,00.0,31.2,23.9,15.6,0000.0,0003.26,0001.06,0000.44
2022-11-05 13:39:00,,0810.6,4.99,0.00,22.1,20.3,00.0,31.2,23.8,15.5,0000.0,0003.28,0001.04,0000.44
2022-11-05 13:40:00,,0810.7,5.00,0.00,22.1,20.2,00.0,31.2,23.7,15.6,0000.0,0003.41,0001.05,0000.45
2022-11-05 13:41:00,,0810.9,5.00,0.00,22.1,20.2,00.0,31.1,23.7,15.5,0000.0,0003.23,0001.03,0000.45
2022-11-05 13:42:00,,0811.0,5.00,0.00,22.0,20.2,00.0,31.1,23.7,15.5,0000.0,0002.57,0001.03,0000.45
2022-11-05 13:43:00,,0810.9,5.00,0.00,22.0,20.1,00.0,31.1,23.7,15.7,0000.0,0002.46,0001.01,0000.46
2022-11-05 13:44:00,,0811.1,5.01,0.00,22.0,20.2,00.0,31.1,23.7,15.6,0000.0,0002.34,0000.95,0000.46
2022-11-05 13:45:00,,0811.1,5.00,0.00,22.0,21.2,00.0,31.0,23.9,15.3,0000.0,0002.15,0000.89,0000.45
2022-11-05 13:46:00,,0811.1,5.00,0.00,22.2,22.3,00.0,31.0,24.2,15.2,0000.0,0002.07,0000.81,0000.44
2022-11-05 13:47:00,,0811.1,5.00,0.00,22.3,22.3,00.0,31.0,24.3,15.3,0000.0,0002.80,0000.81,0000.44
2022-11-05 13:48:00,,0811.0,4.99,0.00,22.3,21.9,00.0,31.0,24.3,15.4,0000.0,0002.83,0000.80,0000.44
2022-11-05 13:49:00,,0811.2,5.01,0.00,22.3,21.6,00.0,31.1,24.2,15.4,0000.0,0002.74,0000.77,0000.43
2022-11-05 13:50:00,,0811.0,5.00,0.00,22.3,21.3,00.0,31.1,24.1,15.4,0000.0,0002.60,0000.72,0000.43
2022-11-05 13:51:00,,0811.0,5.00,0.00,22.3,21.1,00.0,31.1,24.1,15.4,0000.0,0002.38,0000.68,0000.43
2022-11-05 13:52:00,,0811.0,5.00,0.00,22.2,21.0,00.0,31.1,24.0,15.3,0000.0,0002.77,0000.69,0000.43
2022-11-05 13:53:00,,0810.9,5.00,0.00,22.2,20.8,00.0,31.1,24.0,15.3,0000.0,0003.55,0000.66,0000.43
2022-11-05 13:54:00,,0811.1,4.99,0.00,22.2,20.7,00.0,31.1,24.0,15.4,0000.0,0004.78,0000.66,0000.43
2022-11-05 13:55:00,,0811.2,5.00,0.00,22.2,20.7,00.0,31.1,23.9,15.5,0000.0,0005.30,0000.70,0000.44
2022-11-05 13:56:00,,0811.2,5.01,0.00,22.2,20.7,00.0,31.1,23.9,15.1,0000.0,0005.34,0000.72,0000.45
2022-11-05 13:57:00,,0811.1,5.00,0.00,22.2,20.6,00.0,31.1,23.9,15.3,0000.0,0005.99,0000.73,0000.46
2022-11-05 13:58:00,,0811.0,5.00,0.00,22.1,20.5,00.0,31.1,23.8,15.2,0000.0,0006.03,0000.73,0000.45
2022-11-05 13:59:00,,0811.1,5.00,0.00,22.1,20.4,00.0,31.1,23.8,15.3,0000.0,0006.02,0000.72,0000.46
